Location: Newark
(37.3333°N, 6.0167°W)
Time: 21:55:56
(UTC+00:00)

CAS-4B - Visible Passes

Search period start: 13 December 2019 00:00
Search period end: 23 December 2019 00:00
Orbit: 528 x 546 km, 43.0° (Epoch: 13 December)

Date Brightness Start Highest point End Pass type
(mag) Time Alt. Az. Time Alt. Az. Time Alt. Az.
13 Dec ? 18:36:18 10° SSE 18:38:03 13° SE 18:38:03 13° SE visible
14 Dec ? 18:25:12 10° S 18:27:51 17° SE 18:28:42 16° SE visible
14 Dec ? 20:03:28 10° WSW 20:04:04 14° WSW 20:04:04 14° WSW visible
15 Dec ? 18:14:25 10° SSW 18:17:34 22° SE 18:19:17 17° ESE visible
15 Dec ? 19:53:18 10° WSW 19:54:39 20° WSW 19:54:39 20° WSW visible
16 Dec ? 18:03:49 10° SSW 18:07:19 27° SE 18:09:48 16° E visible
16 Dec ? 19:43:10 10° WSW 19:45:10 27° W 19:45:10 27° W visible
17 Dec ? 17:53:20 10° SSW 17:57:04 35° SE 18:00:16 13° E visible
17 Dec ? 19:33:05 10° W 19:35:38 35° W 19:35:38 35° W visible
18 Dec ? 17:42:57 10° SW 17:46:51 45° SSE 17:50:42 11° ENE visible
18 Dec ? 19:23:01 10° W 19:26:03 41° WNW 19:26:03 41° WNW visible
19 Dec ? 17:32:39 10° SW 17:36:38 57° SSE 17:40:41 10° ENE visible
19 Dec ? 19:12:57 10° W 19:16:26 43° NW 19:16:26 43° NW visible
20 Dec ? 19:02:55 10° W 19:06:48 41° N 19:06:48 41° N visible
21 Dec ? 18:52:52 10° WNW 18:56:44 39° N 18:57:09 37° N visible
22 Dec ? 18:42:50 10° WNW 18:46:39 37° N 18:47:29 33° NNE visible
